| time (UTC) | temp F | wind direction | speed MPH | gust MPH | rain 1hr in | rain 24hr in | rain mn in | humidity % | barometer mb |
| 20260507075335 | 50 | 311 | 1.0 | 3.0 | 0.00 | 0.00 | 0.00 | 85 | 1005.4 |
| 20260507074834 | 50 | 273 | 1.0 | 5.0 | 0.00 | 0.00 | 0.00 | 85 | 1005.7 |
| 20260507074335 | 50 | 297 | 2.0 | 7.0 | 0.00 | 0.00 | 0.00 | 85 | 1005.6 |
| 20260507073833 | 50 | 297 | 2.0 | 7.0 | 0.00 | 0.00 | 0.00 | 85 | 1005.3 |
| 20260507073331 | 50 | 305 | 2.0 | 7.0 | 0.00 | 0.00 | 0.00 | 86 | 1005.0 |
| 20260507072831 | 50 | 286 | 1.0 | 7.0 | 0.00 | 0.00 | 0.00 | 86 | 1005.1 |
| 20260507072333 | 50 | 334 | 2.0 | 7.0 | 0.00 | 0.00 | 0.00 | 86 | 1004.8 |
| 20260507071830 | 50 | 318 | 3.0 | 10.0 | 0.00 | 0.00 | 0.00 | 85 | 1005.0 |
| 20260507071559 | 50 | 296 | 3.0 | 10.0 | 0.00 | 0.00 | 0.00 | 85 | 1005.1 |
| 20260507071056 | 50 | 335 | 2.0 | 11.0 | 0.00 | 0.00 | 0.00 | 87 | 1005.1 |
| 20260507070333 | 50 | 316 | 2.0 | 11.0 | 0.00 | 0.00 | 0.00 | 87 | 1005.3 |
| 20260507065831 | 51 | 300 | 1.0 | 8.0 | 0.00 | 0.00 | 0.00 | 88 | 1004.8 |
| 20260507065330 | 51 | 289 | 1.0 | 8.0 | 0.00 | 0.00 | 0.00 | 88 | 1005.0 |
| 20260507064829 | 51 | 299 | 0.0 | 0.0 | 0.00 | 0.00 | 0.00 | 89 | 1004.9 |
| 20260507064553 | 51 | 329 | 0.0 | 0.0 | 0.00 | 0.00 | 0.00 | 89 | 1004.9 |
| 20260507063823 | 51 | 289 | 0.0 | 0.0 | 0.00 | 0.00 | 0.00 | 90 | 1004.8 |
| 20260507063321 | 51 | 285 | 0.0 | 0.0 | 0.00 | 0.00 | 0.00 | 90 | 1004.6 |
| 20260507062821 | 51 | 289 | 0.0 | 0.0 | 0.00 | 0.00 | 0.00 | 89 | 1004.5 |
| 20260507062321 | 51 | 289 | 0.0 | 4.0 | 0.00 | 0.00 | 0.00 | 90 | 1004.6 |
| 20260507061821 | 51 | 288 | 0.0 | 4.0 | 0.00 | 0.00 | 0.00 | 89 | 1004.7 |
| 20260507061320 | 51 | 302 | 0.0 | 2.0 | 0.00 | 0.00 | 0.00 | 89 | 1004.6 |
| 20260507060821 | 51 | 336 | 0.0 | 3.0 | 0.00 | 0.00 | 0.00 | 89 | 1004.6 |
| 20260507060321 | 51 | 295 | 1.0 | 3.0 | 0.00 | 0.00 | 0.00 | 90 | 1004.7 |
| 20260507055821 | 52 | 302 | 1.0 | 6.0 | 0.00 | 0.00 | 0.00 | 90 | 1004.8 |
| 20260507055548 | 52 | 254 | 1.0 | 6.0 | 0.00 | 0.00 | 0.00 | 90 | 1004.8 |
| 20260507054820 | 52 | 264 | 0.0 | 2.0 | 0.00 | 0.00 | 0.00 | 91 | 1005.0 |
| 20260507054320 | 52 | 310 | 0.0 | 2.0 | 0.00 | 0.00 | 0.00 | 92 | 1005.0 |
| 20260507053821 | 52 | 318 | 0.0 | 2.0 | 0.00 | 0.00 | 0.00 | 91 | 1005.1 |
| 20260507053325 | 52 | 318 | 0.0 | 2.0 | 0.00 | 0.00 | 0.00 | 92 | 1004.8 |
| 20260507052823 | 52 | 282 | 0.0 | 2.0 | 0.00 | 0.00 | 0.00 | 92 | 1005.0 |
| 20260507052325 | 52 | 325 | 0.0 | 1.0 | 0.00 | 0.00 | 0.00 | 92 | 1005.2 |
| 20260507051822 | 52 | 291 | 0.0 | 3.0 | 0.00 | 0.00 | 0.00 | 92 | 1005.3 |
| 20260507051325 | 52 | 288 | 0.0 | 3.0 | 0.00 | 0.00 | 0.00 | 91 | 1005.1 |
| 20260507050815 | 52 | 304 | 0.0 | 0.0 | 0.00 | 0.00 | 0.00 | 91 | 1004.9 |
| 20260507050803 | 53 | 318 | 1.0 | 0.0 | 0.00 | 0.00 | 0.00 | 91 | 1005.0 |
| 20260507045652 | 53 | 288 | 1.0 | 3.0 | 0.00 | 0.00 | 0.00 | 91 | 1005.0 |
| 20260507045154 | 53 | 303 | 1.0 | 3.0 | 0.00 | 0.00 | 0.00 | 92 | 1004.9 |
| 20260507044650 | 53 | 295 | 1.0 | 3.0 | 0.00 | 0.00 | 0.00 | 92 | 1004.8 |
| 20260507044144 | 53 | 285 | 1.0 | 3.0 | 0.00 | 0.00 | 0.00 | 92 | 1004.7 |
| 20260507043638 | 53 | 277 | 1.0 | 3.0 | 0.00 | 0.00 | 0.00 | 91 | 1004.9 |
| 20260507043136 | 53 | 277 | 1.0 | 4.0 | 0.00 | 0.00 | 0.00 | 91 | 1004.8 |
| 20260507042637 | 54 | 311 | 2.0 | 5.0 | 0.00 | 0.00 | 0.00 | 91 | 1004.9 |
| 20260507042136 | 54 | 295 | 2.0 | 7.0 | 0.00 | 0.00 | 0.00 | 90 | 1004.9 |
| 20260507041636 | 54 | 287 | 2.0 | 7.0 | 0.01 | 0.00 | 0.00 | 90 | 1005.0 |
| 20260507041401 | 55 | 292 | 2.0 | 7.0 | 0.01 | 0.00 | 0.00 | 90 | 1005.1 |
| 20260507040634 | 55 | 290 | 2.0 | 7.0 | 0.01 | 0.00 | 0.00 | 91 | 1005.0 |
| 20260507040137 | 56 | 269 | 2.0 | 7.0 | 0.01 | 0.00 | 0.00 | 91 | 1004.7 |
| 20260507035633 | 56 | 308 | 2.0 | 7.0 | 0.01 | 0.00 | 0.00 | 91 | 1004.6 |
| 20260507035133 | 57 | 321 | 2.0 | 8.0 | 0.01 | 0.00 | 0.00 | 91 | 1004.5 |
| 20260507034631 | 58 | 313 | 2.0 | 8.0 | 0.01 | 0.00 | 0.00 | 90 | 1004.4 |
| 20260507034134 | 58 | 327 | 2.0 | 7.0 | 0.01 | 0.00 | 0.00 | 91 | 1004.3 |
| 20260507033630 | 59 | 326 | 1.0 | 6.0 | 0.01 | 0.00 | 0.00 | 92 | 1004.2 |
| 20260507033134 | 59 | 316 | 1.0 | 6.0 | 0.01 | 0.00 | 0.00 | 93 | 1004.1 |
| 20260507032631 | 59 | 299 | 1.0 | 8.0 | 0.01 | 0.00 | 0.00 | 93 | 1003.9 |
| 20260507032131 | 60 | 298 | 1.0 | 8.0 | 0.01 | 0.00 | 0.00 | 94 | 1003.9 |
| 20260507031631 | 60 | 325 | 0.0 | 2.0 | 0.00 | 0.00 | 0.00 | 93 | 1003.9 |
| 20260507031130 | 60 | 275 | 0.0 | 3.0 | 0.00 | 0.00 | 0.00 | 93 | 1003.8 |
| 20260507030631 | 60 | 245 | 0.0 | 3.0 | 0.00 | 0.00 | 0.00 | 93 | 1003.7 |
| 20260507030127 | 60 | 317 | 1.0 | 4.0 | 0.00 | 0.00 | 0.00 | 93 | 1003.8 |
| 20260507025620 | 60 | 220 | 1.0 | 4.0 | 0.00 | 0.00 | 0.00 | 93 | 1003.7 |
| 20260507025116 | 60 | 162 | 0.0 | 4.0 | 0.00 | 0.00 | 0.00 | 93 | 1003.6 |
| 20260507024607 | 60 | 155 | 0.0 | 4.0 | 0.00 | 0.00 | 0.00 | 93 | 1003.6 |
| 20260507024306 | 60 | 180 | 1.0 | 4.0 | 0.00 | 0.00 | 0.00 | 93 | 1003.7 |
| 20260507024252 | 60 | 206 | 0.0 | 4.0 | 0.00 | 0.00 | 0.00 | 93 | 1003.7 |
| 20260507023106 | 60 | 179 | 0.0 | 3.0 | 0.00 | 0.00 | 0.00 | 93 | 1003.7 |
| 20260507022602 | 60 | 170 | 0.0 | 4.0 | 0.00 | 0.00 | 0.00 | 93 | 1003.5 |
| 20260507022105 | 60 | 202 | 1.0 | 4.0 | 0.00 | 0.00 | 0.00 | 93 | 1003.6 |
| 20260507021826 | 60 | 151 | 1.0 | 4.0 | 0.00 | 0.00 | 0.00 | 93 | 1003.6 |
| 20260507021105 | 60 | 156 | 1.0 | 4.0 | 0.00 | 0.00 | 0.00 | 93 | 1003.5 |
| 20260507020603 | 60 | 184 | 2.0 | 6.0 | 0.00 | 0.00 | 0.00 | 93 | 1003.6 |
| 20260507020329 | 60 | 200 | 2.0 | 6.0 | 0.00 | 0.00 | 0.00 | 93 | 1003.7 |
| 20260507015604 | 60 | 188 | 1.0 | 4.0 | 0.00 | 0.00 | 0.00 | 93 | 1003.7 |
| 20260507015106 | 60 | 192 | 1.0 | 4.0 | 0.00 | 0.00 | 0.00 | 93 | 1003.8 |
| 20260507014604 | 60 | 182 | 1.0 | 5.0 | 0.00 | 0.00 | 0.00 | 93 | 1003.7 |
| 20260507014105 | 60 | 152 | 1.0 | 5.0 | 0.00 | 0.00 | 0.00 | 93 | 1003.8 |
| 20260507013820 | 60 | 187 | 1.0 | 4.0 | 0.00 | 0.00 | 0.00 | 93 | 1003.8 |
| 20260507013104 | 60 | 162 | 2.0 | 8.0 | 0.00 | 0.00 | 0.00 | 93 | 1003.8 |
| 20260507012602 | 60 | 177 | 2.0 | 8.0 | 0.00 | 0.00 | 0.00 | 93 | 1003.9 |
| 20260507012104 | 60 | 163 | 2.0 | 6.0 | 0.00 | 0.00 | 0.00 | 93 | 1003.9 |
| 20260507011602 | 60 | 164 | 2.0 | 6.0 | 0.00 | 0.00 | 0.00 | 93 | 1003.9 |
| 20260507011102 | 60 | 234 | 2.0 | 5.0 | 0.00 | 0.00 | 0.00 | 93 | 1003.9 |
| 20260507010602 | 60 | 155 | 2.0 | 7.0 | 0.00 | 0.00 | 0.00 | 93 | 1004.0 |
| 20260507005602 | 60 | 155 | 3.0 | 7.0 | 0.00 | 0.00 | 0.00 | 93 | 1003.9 |
| 20260507005102 | 60 | 177 | 3.0 | 6.0 | 0.00 | 0.00 | 0.00 | 93 | 1003.9 |
| 20260507004602 | 60 | 171 | 2.0 | 7.0 | 0.00 | 0.00 | 0.00 | 93 | 1003.8 |
| 20260507004103 | 60 | 179 | 3.0 | 7.0 | 0.00 | 0.00 | 0.00 | 93 | 1003.8 |
| 20260507003602 | 60 | 165 | 3.0 | 6.0 | 0.00 | 0.00 | 0.00 | 93 | 1003.7 |
| 20260507003102 | 60 | 156 | 3.0 | 7.0 | 0.01 | 0.00 | 0.00 | 93 | 1003.8 |
| 20260507002824 | 60 | 113 | 3.0 | 7.0 | 0.02 | 0.00 | 0.00 | 93 | 1003.9 |
| 20260507002102 | 60 | 161 | 2.0 | 5.0 | 0.04 | 0.00 | 0.00 | 93 | 1003.8 |
| 20260507001602 | 60 | 191 | 2.0 | 5.0 | 0.05 | 0.00 | 0.00 | 93 | 1003.8 |
| 20260507001327 | 60 | 171 | 2.0 | 5.0 | 0.05 | 0.00 | 0.00 | 93 | 1003.7 |
| 20260507000603 | 60 | 151 | 2.0 | 7.0 | 0.06 | 0.00 | 0.00 | 93 | 1003.7 |
| 20260506235604 | 60 | 173 | 2.0 | 5.0 | 0.07 | 0.00 | 0.00 | 93 | 1003.6 |
| 20260506235316 | 60 | 163 | 2.0 | 5.0 | 0.08 | 0.00 | 0.00 | 93 | 1003.6 |
| 20260506234550 | 60 | 150 | 2.0 | 6.0 | 0.10 | 0.00 | 0.00 | 93 | 1003.6 |
| 20260506234044 | 60 | 157 | 2.0 | 6.0 | 0.11 | 0.00 | 0.00 | 93 | 1003.5 |
| 20260506233538 | 60 | 161 | 2.0 | 6.0 | 0.12 | 0.00 | 0.00 | 93 | 1003.7 |
| 20260506233034 | 60 | 153 | 3.0 | 6.0 | 0.13 | 0.00 | 0.00 | 93 | 1003.6 |
| 20260506232527 | 60 | 162 | 3.0 | 7.0 | 0.13 | 0.00 | 0.00 | 93 | 1003.6 |
| 20260506232242 | 60 | 206 | 3.0 | 7.0 | 0.11 | 0.00 | 0.00 | 93 | 1003.7 |
| 20260506231514 | 60 | 155 | 3.0 | 5.0 | 0.11 | 0.00 | 0.00 | 93 | 1003.7 |
| 20260506231009 | 60 | 162 | 2.0 | 5.0 | 0.12 | 0.00 | 0.00 | 93 | 1003.8 |
| 20260506230507 | 60 | 161 | 2.0 | 8.0 | 0.12 | 0.00 | 0.00 | 92 | 1004.0 |
| 20260506230006 | 60 | 178 | 2.0 | 8.0 | 0.11 | 0.00 | 0.00 | 93 | 1003.9 |
| 20260506225507 | 60 | 174 | 3.0 | 6.0 | 0.11 | 0.00 | 0.00 | 92 | 1003.8 |
| 20260506225007 | 60 | 155 | 2.0 | 5.0 | 0.09 | 0.00 | 0.00 | 92 | 1003.9 |
| 20260506224505 | 60 | 173 | 2.0 | 4.0 | 0.09 | 0.00 | 0.00 | 92 | 1004.0 |
| 20260506224005 | 60 | 159 | 2.0 | 5.0 | 0.08 | 0.00 | 0.00 | 92 | 1004.0 |
| 20260506223725 | 60 | 163 | 3.0 | 5.0 | 0.06 | 0.00 | 0.00 | 92 | 1004.0 |
| 20260506223004 | 60 | 107 | 2.0 | 5.0 | 0.05 | 0.00 | 0.00 | 92 | 1004.0 |
| 20260506222503 | 60 | 163 | 2.0 | 5.0 | 0.04 | 0.00 | 0.00 | 92 | 1004.1 |
| 20260506222002 | 60 | 171 | 2.0 | 7.0 | 0.05 | 0.00 | 0.00 | 92 | 1004.0 |
| 20260506221504 | 60 | 167 | 2.0 | 7.0 | 0.04 | 0.00 | 0.00 | 92 | 1004.1 |
| 20260506221003 | 60 | 167 | 2.0 | 5.0 | 0.04 | 0.00 | 0.00 | 92 | 1004.2 |
| 20260506220502 | 60 | 142 | 3.0 | 9.0 | 0.04 | 0.00 | 0.00 | 92 | 1004.3 |
| 20260506220002 | 60 | 183 | 3.0 | 9.0 | 0.05 | 0.00 | 0.00 | 91 | 1004.3 |
| 20260506215503 | 60 | 161 | 3.0 | 6.0 | 0.06 | 0.00 | 0.00 | 92 | 1004.3 |
| 20260506215002 | 61 | 163 | 3.0 | 6.0 | 0.07 | 0.00 | 0.00 | 91 | 1004.2 |
| 20260506214503 | 61 | 172 | 3.0 | 5.0 | 0.06 | 0.00 | 0.00 | 91 | 1004.3 |
| 20260506214002 | 61 | 164 | 3.0 | 5.0 | 0.07 | 0.00 | 0.00 | 91 | 1004.5 |
| 20260506213502 | 61 | 171 | 3.0 | 6.0 | 0.08 | 0.00 | 0.00 | 91 | 1004.5 |
| 20260506213002 | 61 | 176 | 3.0 | 8.0 | 0.09 | 0.00 | 0.00 | 91 | 1004.5 |
| 20260506212727 | 61 | 167 | 3.0 | 8.0 | 0.10 | 0.00 | 0.00 | 91 | 1004.6 |
| 20260506212003 | 61 | 180 | 3.0 | 6.0 | 0.10 | 0.00 | 0.00 | 90 | 1004.7 |
| 20260506211503 | 61 | 180 | 2.0 | 5.0 | 0.12 | 0.00 | 0.00 | 91 | 1004.7 |
| 20260506211002 | 62 | 123 | 3.0 | 7.0 | 0.12 | 0.00 | 0.00 | 91 | 1004.7 |
| 20260506210500 | 62 | 175 | 3.0 | 7.0 | 0.11 | 0.00 | 0.00 | 90 | 1004.8 |
| 20260506205959 | 62 | 150 | 3.0 | 6.0 | 0.10 | 0.00 | 0.00 | 90 | 1004.9 |
| 20260506205458 | 62 | 159 | 3.0 | 7.0 | 0.10 | 0.00 | 0.00 | 90 | 1004.8 |
| 20260506205221 | 62 | 166 | 2.0 | 7.0 | 0.10 | 0.00 | 0.00 | 90 | 1004.9 |
| 20260506204456 | 62 | 164 | 2.0 | 6.0 | 0.10 | 0.00 | 0.00 | 89 | 1005.0 |
| 20260506203956 | 62 | 138 | 2.0 | 5.0 | 0.10 | 0.00 | 0.00 | 89 | 1004.9 |
| 20260506203456 | 62 | 148 | 3.0 | 6.0 | 0.09 | 0.00 | 0.00 | 88 | 1004.8 |
| 20260506203222 | 62 | 155 | 3.0 | 6.0 | 0.09 | 0.00 | 0.00 | 87 | 1004.8 |
| 20260506202456 | 62 | 157 | 3.0 | 6.0 | 0.08 | 0.00 | 0.00 | 87 | 1004.8 |
| 20260506201956 | 63 | 129 | 3.0 | 6.0 | 0.08 | 0.00 | 0.00 | 87 | 1004.8 |
| 20260506201456 | 63 | 167 | 2.0 | 6.0 | 0.06 | 0.00 | 0.00 | 87 | 1004.8 |
| 20260506200956 | 63 | 185 | 2.0 | 6.0 | 0.05 | 0.00 | 0.00 | 85 | 1004.8 |
| 20260506200726 | 64 | 159 | 3.0 | 10.0 | 0.05 | 0.00 | 0.00 | 85 | 1004.8 |
| 20260506195948 | 64 | 160 | 3.0 | 10.0 | 0.04 | 0.00 | 0.00 | 83 | 1004.7 |
| 20260506195439 | 64 | 149 | 2.0 | 7.0 | 0.03 | 0.00 | 0.00 | 81 | 1004.8 |
| 20260506194939 | 65 | 155 | 2.0 | 6.0 | 0.03 | 0.00 | 0.00 | 82 | 1004.8 |
| 20260506194704 | 65 | 171 | 2.0 | 6.0 | 0.02 | 0.00 | 0.00 | 81 | 1004.8 |
| 20260506193938 | 66 | 159 | 2.0 | 4.0 | 0.02 | 0.00 | 0.00 | 79 | 1004.8 |
| 20260506193438 | 66 | 160 | 3.0 | 10.0 | 0.02 | 0.00 | 0.00 | 77 | 1004.8 |
| 20260506193420 | 67 | 164 | 3.0 | 10.0 | 0.01 | 0.00 | 0.00 | 75 | 1004.8 |
| 20260506192439 | 67 | 206 | 3.0 | 9.0 | 0.01 | 0.00 | 0.00 | 74 | 1005.0 |
| 20260506191938 | 68 | 175 | 3.0 | 9.0 | 0.00 | 0.00 | 0.00 | 71 | 1004.9 |
| 20260506191437 | 69 | 175 | 3.0 | 12.0 | 0.00 | 0.00 | 0.00 | 68 | 1004.9 |
| 20260506191154 | 69 | 162 | 4.0 | 12.0 | 0.00 | 0.00 | 0.00 | 66 | 1004.9 |
| 20260506190434 | 70 | 187 | 2.0 | 8.0 | 0.00 | 0.00 | 0.00 | 65 | 1004.9 |
| 20260506185935 | 70 | 188 | 2.0 | 5.0 | 0.00 | 0.00 | 0.00 | 63 | 1004.9 |
| 20260506185433 | 70 | 169 | 2.0 | 8.0 | 0.00 | 0.00 | 0.00 | 62 | 1004.9 |
| 20260506184932 | 70 | 198 | 3.0 | 8.0 | 0.00 | 0.00 | 0.00 | 63 | 1004.9 |
| 20260506184653 | 71 | 157 | 4.0 | 8.0 | 0.00 | 0.00 | 0.00 | 62 | 1004.9 |
| 20260506183932 | 71 | 148 | 4.0 | 8.0 | 0.00 | 0.00 | 0.00 | 61 | 1004.8 |
| 20260506183433 | 71 | 166 | 2.0 | 7.0 | 0.00 | 0.00 | 0.00 | 62 | 1004.8 |
| 20260506183206 | 71 | 181 | 3.0 | 10.0 | 0.00 | 0.00 | 0.00 | 61 | 1004.8 |
| 20260506182432 | 71 | 102 | 3.0 | 10.0 | 0.00 | 0.00 | 0.00 | 60 | 1004.9 |
| 20260506182153 | 72 | 146 | 3.0 | 6.0 | 0.00 | 0.00 | 0.00 | 62 | 1004.8 |
| 20260506181431 | 73 | 159 | 4.0 | 14.0 | 0.00 | 0.00 | 0.00 | 60 | 1004.9 |
| 20260506180931 | 73 | 166 | 4.0 | 14.0 | 0.00 | 0.00 | 0.00 | 55 | 1004.9 |
| 20260506180431 | 73 | 169 | 5.0 | 11.0 | 0.00 | 0.00 | 0.00 | 55 | 1004.9 |
| 20260506175930 | 73 | 176 | 4.0 | 11.0 | 0.00 | 0.00 | 0.00 | 54 | 1005.0 |
| 20260506175431 | 74 | 181 | 4.0 | 9.0 | 0.00 | 0.00 | 0.00 | 55 | 1005.1 |
| 20260506175148 | 74 | 140 | 4.0 | 9.0 | 0.00 | 0.00 | 0.00 | 54 | 1005.1 |
| 20260506174420 | 74 | 170 | 4.0 | 9.0 | 0.00 | 0.00 | 0.00 | 54 | 1005.0 |
| 20260506173913 | 74 | 182 | 5.0 | 11.0 | 0.00 | 0.00 | 0.00 | 54 | 1005.1 |
| 20260506173407 | 75 | 132 | 6.0 | 15.0 | 0.00 | 0.00 | 0.00 | 53 | 1005.1 |
| 20260506172906 | 75 | 172 | 5.0 | 15.0 | 0.00 | 0.00 | 0.00 | 52 | 1005.0 |
| 20260506172406 | 75 | 148 | 5.0 | 10.0 | 0.00 | 0.00 | 0.00 | 53 | 1005.0 |
| 20260506171907 | 75 | 163 | 4.0 | 10.0 | 0.00 | 0.00 | 0.00 | 52 | 1005.2 |
| 20260506171406 | 74 | 176 | 4.0 | 9.0 | 0.00 | 0.00 | 0.00 | 53 | 1005.2 |
| 20260506171124 | 74 | 196 | 4.0 | 10.0 | 0.00 | 0.00 | 0.00 | 53 | 1005.3 |
| 20260506170406 | 73 | 163 | 5.0 | 14.0 | 0.00 | 0.00 | 0.00 | 54 | 1005.3 |
| 20260506165906 | 73 | 177 | 4.0 | 14.0 | 0.00 | 0.00 | 0.00 | 54 | 1005.4 |
| 20260506165406 | 73 | 158 | 3.0 | 7.0 | 0.00 | 0.00 | 0.00 | 54 | 1005.4 |
| 20260506164906 | 73 | 179 | 3.0 | 8.0 | 0.00 | 0.00 | 0.00 | 54 | 1005.5 |
| 20260506164406 | 73 | 169 | 3.0 | 8.0 | 0.00 | 0.00 | 0.00 | 54 | 1005.6 |
| 20260506163906 | 73 | 182 | 4.0 | 10.0 | 0.00 | 0.00 | 0.00 | 55 | 1005.8 |
| 20260506163404 | 73 | 170 | 4.0 | 10.0 | 0.00 | 0.00 | 0.00 | 55 | 1005.7 |
| 20260506162906 | 73 | 178 | 3.0 | 9.0 | 0.00 | 0.00 | 0.00 | 57 | 1005.9 |
| 20260506162626 | 73 | 188 | 3.0 | 8.0 | 0.00 | 0.00 | 0.00 | 58 | 1005.8 |
| 20260506161904 | 72 | 163 | 3.0 | 8.0 | 0.00 | 0.00 | 0.00 | 58 | 1006.1 |
| 20260506161403 | 72 | 161 | 3.0 | 6.0 | 0.00 | 0.00 | 0.00 | 58 | 1006.1 |
| 20260506160904 | 72 | 141 | 3.0 | 8.0 | 0.00 | 0.00 | 0.00 | 59 | 1006.3 |
| 20260506160404 | 72 | 146 | 3.0 | 8.0 | 0.00 | 0.00 | 0.00 | 60 | 1006.4 |
| 20260506155904 | 71 | 165 | 3.0 | 7.0 | 0.00 | 0.00 | 0.00 | 61 | 1006.5 |
| 20260506155404 | 71 | 141 | 3.0 | 7.0 | 0.00 | 0.00 | 0.00 | 60 | 1006.6 |
| 20260506155129 | 71 | 145 | 3.0 | 6.0 | 0.00 | 0.00 | 0.00 | 60 | 1006.7 |
| 20260506154403 | 71 | 170 | 3.0 | 5.0 | 0.00 | 0.00 | 0.00 | 61 | 1006.8 |
| 20260506154124 | 71 | 172 | 3.0 | 8.0 | 0.00 | 0.00 | 0.00 | 61 | 1006.9 |
| 20260506153404 | 71 | 159 | 3.0 | 8.0 | 0.00 | 0.00 | 0.00 | 61 | 1007.0 |
| 20260506152904 | 71 | 164 | 3.0 | 7.0 | 0.00 | 0.00 | 0.00 | 61 | 1007.1 |
| 20260506152625 | 71 | 192 | 4.0 | 8.0 | 0.00 | 0.00 | 0.00 | 61 | 1007.1 |
| 20260506151903 | 71 | 173 | 4.0 | 9.0 | 0.00 | 0.00 | 0.00 | 61 | 1007.1 |
| 20260506151403 | 71 | 166 | 4.0 | 9.0 | 0.00 | 0.00 | 0.00 | 61 | 1007.2 |
| 20260506150904 | 71 | 172 | 3.0 | 7.0 | 0.00 | 0.00 | 0.00 | 61 | 1007.1 |
| 20260506150630 | 71 | 201 | 3.0 | 8.0 | 0.00 | 0.00 | 0.00 | 62 | 1007.2 |
| 20260506145902 | 71 | 188 | 3.0 | 10.0 | 0.00 | 0.00 | 0.00 | 63 | 1007.3 |
| 20260506145402 | 70 | 150 | 4.0 | 10.0 | 0.00 | 0.00 | 0.00 | 63 | 1007.3 |
| 20260506144902 | 70 | 169 | 4.0 | 7.0 | 0.00 | 0.00 | 0.00 | 63 | 1007.3 |
| 20260506144402 | 70 | 184 | 4.0 | 10.0 | 0.00 | 0.00 | 0.00 | 64 | 1007.2 |
| 20260506143902 | 70 | 148 | 5.0 | 10.0 | 0.00 | 0.00 | 0.00 | 64 | 1007.1 |
| 20260506143401 | 70 | 171 | 4.0 | 11.0 | 0.00 | 0.00 | 0.00 | 63 | 1007.1 |
| 20260506143129 | 70 | 193 | 5.0 | 11.0 | 0.00 | 0.00 | 0.00 | 64 | 1007.1 |
| 20260506142402 | 70 | 196 | 3.0 | 10.0 | 0.00 | 0.00 | 0.00 | 63 | 1006.9 |
| 20260506141902 | 70 | 149 | 2.0 | 8.0 | 0.00 | 0.00 | 0.00 | 65 | 1006.8 |
| 20260506141402 | 69 | 336 | 3.0 | 7.0 | 0.00 | 0.00 | 0.00 | 66 | 1007.0 |
| 20260506140902 | 69 | 258 | 3.0 | 7.0 | 0.00 | 0.00 | 0.00 | 67 | 1007.1 |
| 20260506140401 | 68 | 163 | 3.0 | 8.0 | 0.00 | 0.00 | 0.00 | 67 | 1007.1 |
| 20260506135901 | 68 | 163 | 3.0 | 8.0 | 0.00 | 0.00 | 0.00 | 67 | 1007.1 |
| 20260506135402 | 68 | 215 | 2.0 | 7.0 | 0.00 | 0.00 | 0.00 | 68 | 1007.2 |
| 20260506135125 | 67 | 150 | 3.0 | 8.0 | 0.00 | 0.00 | 0.00 | 69 | 1007.3 |
| 20260506134404 | 67 | 176 | 3.0 | 8.0 | 0.00 | 0.00 | 0.00 | 69 | 1007.4 |
| 20260506133906 | 67 | 184 | 3.0 | 8.0 | 0.00 | 0.00 | 0.00 | 69 | 1007.5 |
| 20260506133622 | 67 | 146 | 3.0 | 8.0 | 0.00 | 0.00 | 0.00 | 70 | 1007.7 |
| 20260506132907 | 67 | 169 | 3.0 | 8.0 | 0.00 | 0.00 | 0.00 | 70 | 1007.7 |
| 20260506132403 | 67 | 182 | 3.0 | 7.0 | 0.00 | 0.00 | 0.00 | 70 | 1007.7 |
| 20260506132338 | 66 | 188 | 4.0 | 7.0 | 0.00 | 0.00 | 0.00 | 70 | 1007.5 |
| 20260506132050 | 66 | 178 | 3.0 | 7.0 | 0.00 | 0.00 | 0.00 | 70 | 1007.5 |
| 20260506130854 | 66 | 176 | 4.0 | 8.0 | 0.00 | 0.00 | 0.00 | 70 | 1007.5 |
| 20260506130621 | 66 | 165 | 3.0 | 8.0 | 0.00 | 0.00 | 0.00 | 70 | 1007.7 |
| 20260506125853 | 66 | 181 | 3.0 | 7.0 | 0.00 | 0.00 | 0.00 | 70 | 1007.6 |
| 20260506125354 | 66 | 159 | 3.0 | 11.0 | 0.00 | 0.00 | 0.00 | 70 | 1007.7 |
| 20260506124854 | 66 | 180 | 3.0 | 11.0 | 0.00 | 0.00 | 0.00 | 70 | 1007.4 |
| 20260506124354 | 66 | 200 | 3.0 | 10.0 | 0.00 | 0.00 | 0.00 | 71 | 1007.4 |
| 20260506123854 | 66 | 207 | 3.0 | 10.0 | 0.00 | 0.00 | 0.00 | 71 | 1007.5 |
| 20260506123620 | 66 | 165 | 3.0 | 8.0 | 0.00 | 0.00 | 0.00 | 71 | 1007.6 |
| 20260506122857 | 66 | 180 | 4.0 | 8.0 | 0.00 | 0.00 | 0.00 | 71 | 1007.8 |
| 20260506122354 | 66 | 142 | 4.0 | 7.0 | 0.00 | 0.00 | 0.00 | 71 | 1007.8 |
| 20260506121855 | 65 | 207 | 3.0 | 7.0 | 0.00 | 0.00 | 0.00 | 72 | 1007.8 |
| 20260506121354 | 65 | 177 | 2.0 | 5.0 | 0.00 | 0.00 | 0.00 | 73 | 1007.7 |
| 20260506120854 | 64 | 157 | 3.0 | 9.0 | 0.00 | 0.00 | 0.00 | 73 | 1007.7 |
| 20260506120353 | 64 | 157 | 4.0 | 9.0 | 0.00 | 0.00 | 0.00 | 73 | 1007.8 |
| 20260506115852 | 64 | 150 | 3.0 | 8.0 | 0.00 | 0.00 | 0.00 | 73 | 1007.9 |
| 20260506115352 | 64 | 160 | 4.0 | 8.0 | 0.00 | 0.00 | 0.00 | 73 | 1007.9 |
| 20260506114851 | 64 | 198 | 3.0 | 8.0 | 0.00 | 0.00 | 0.00 | 73 | 1007.9 |
| 20260506114611 | 64 | 180 | 2.0 | 11.0 | 0.00 | 0.00 | 0.00 | 73 | 1007.9 |
| 20260506113850 | 64 | 181 | 2.0 | 11.0 | 0.00 | 0.00 | 0.00 | 73 | 1008.0 |
| 20260506113350 | 64 | 170 | 3.0 | 7.0 | 0.00 | 0.00 | 0.00 | 73 | 1008.1 |
| 20260506113109 | 64 | 190 | 3.0 | 7.0 | 0.00 | 0.00 | 0.00 | 73 | 1008.1 |
| 20260506112349 | 64 | 184 | 2.0 | 6.0 | 0.00 | 0.00 | 0.00 | 74 | 1008.1 |
| 20260506111848 | 63 | 208 | 2.0 | 5.0 | 0.00 | 0.00 | 0.00 | 74 | 1008.0 |
| 20260506111348 | 63 | 181 | 3.0 | 6.0 | 0.00 | 0.00 | 0.00 | 74 | 1007.9 |
| 20260506110847 | 63 | 171 | 3.0 | 6.0 | 0.00 | 0.00 | 0.00 | 74 | 1008.0 |
| 20260506110348 | 63 | 153 | 2.0 | 6.0 | 0.00 | 0.00 | 0.00 | 75 | 1008.1 |
| 20260506105848 | 62 | 169 | 2.0 | 5.0 | 0.00 | 0.00 | 0.00 | 75 | 1008.1 |
| 20260506105348 | 63 | 190 | 2.0 | 5.0 | 0.00 | 0.00 | 0.00 | 75 | 1008.2 |
| 20260506104847 | 63 | 165 | 3.0 | 7.0 | 0.00 | 0.00 | 0.00 | 74 | 1008.0 |
| 20260506104348 | 63 | 193 | 4.0 | 7.0 | 0.00 | 0.00 | 0.00 | 74 | 1008.0 |
| 20260506103847 | 63 | 168 | 3.0 | 7.0 | 0.00 | 0.00 | 0.00 | 74 | 1007.9 |
| 20260506103348 | 62 | 184 | 2.0 | 6.0 | 0.00 | 0.00 | 0.00 | 74 | 1007.9 |
| 20260506102848 | 62 | 165 | 2.0 | 5.0 | 0.00 | 0.00 | 0.00 | 74 | 1008.0 |
| 20260506102348 | 62 | 163 | 2.0 | 5.0 | 0.00 | 0.00 | 0.00 | 74 | 1008.0 |
| 20260506101848 | 62 | 166 | 2.0 | 6.0 | 0.00 | 0.00 | 0.00 | 74 | 1008.0 |
| 20260506101348 | 62 | 163 | 3.0 | 6.0 | 0.00 | 0.00 | 0.00 | 74 | 1008.0 |
| 20260506100848 | 62 | 161 | 3.0 | 8.0 | 0.00 | 0.00 | 0.00 | 74 | 1007.9 |
| 20260506100610 | 62 | 179 | 4.0 | 8.0 | 0.00 | 0.00 | 0.00 | 74 | 1008.1 |
| 20260506095848 | 62 | 216 | 3.0 | 7.0 | 0.00 | 0.00 | 0.00 | 74 | 1007.9 |
| 20260506095347 | 62 | 163 | 3.0 | 6.0 | 0.00 | 0.00 | 0.00 | 74 | 1007.9 |
| 20260506094848 | 62 | 167 | 2.0 | 6.0 | 0.00 | 0.00 | 0.00 | 74 | 1007.8 |
| 20260506094348 | 62 | 155 | 3.0 | 6.0 | 0.00 | 0.00 | 0.00 | 74 | 1007.8 |
| 20260506094109 | 62 | 186 | 2.0 | 5.0 | 0.00 | 0.00 | 0.00 | 74 | 1008.0 |
| 20260506093340 | 62 | 175 | 2.0 | 6.0 | 0.00 | 0.00 | 0.00 | 73 | 1008.0 |
| 20260506092841 | 62 | 166 | 2.0 | 6.0 | 0.00 | 0.00 | 0.00 | 73 | 1007.9 |
| 20260506092342 | 62 | 163 | 2.0 | 5.0 | 0.00 | 0.00 | 0.00 | 73 | 1007.9 |
| 20260506092109 | 62 | 159 | 2.0 | 5.0 | 0.00 | 0.00 | 0.00 | 73 | 1007.8 |
| 20260506091834 | 63 | 161 | 3.0 | 7.0 | 0.00 | 0.00 | 0.00 | 73 | 1007.9 |
| 20260506090838 | 63 | 165 | 3.0 | 7.0 | 0.00 | 0.00 | 0.00 | 72 | 1008.0 |
| 20260506090818 | 63 | 171 | 3.0 | 5.0 | 0.00 | 0.00 | 0.00 | 72 | 1007.9 |
| 20260506085835 | 63 | 163 | 3.0 | 5.0 | 0.00 | 0.00 | 0.00 | 72 | 1007.9 |
| 20260506085336 | 63 | 177 | 2.0 | 5.0 | 0.00 | 0.00 | 0.00 | 72 | 1007.9 |
| 20260506084835 | 63 | 192 | 1.0 | 4.0 | 0.00 | 0.00 | 0.00 | 71 | 1007.9 |
| 20260506084336 | 63 | 163 | 2.0 | 7.0 | 0.00 | 0.00 | 0.00 | 71 | 1007.9 |
| 20260506083835 | 63 | 169 | 3.0 | 7.0 | 0.00 | 0.00 | 0.00 | 71 | 1007.9 |
| 20260506083551 | 64 | 156 | 3.0 | 7.0 | 0.00 | 0.00 | 0.00 | 70 | 1007.9 |
| 20260506083054 | 64 | 186 | 2.0 | 7.0 | 0.00 | 0.00 | 0.00 | 70 | 1007.9 |
| 20260506082331 | 64 | 194 | 2.0 | 4.0 | 0.00 | 0.00 | 0.00 | 70 | 1007.9 |
| 20260506081831 | 64 | 171 | 2.0 | 5.0 | 0.00 | 0.00 | 0.00 | 70 | 1007.9 |
| 20260506081551 | 64 | 202 | 2.0 | 5.0 | 0.00 | 0.00 | 0.00 | 69 | 1007.8 |
| 20260506080831 | 64 | 190 | 2.0 | 8.0 | 0.00 | 0.00 | 0.00 | 69 | 1007.8 |
| 20260506080331 | 64 | 163 | 2.0 | 8.0 | 0.00 | 0.00 | 0.00 | 69 | 1007.7 |